When you browse on this site, cookies collect data to enhance your experience and personalize the content and advertising you see.
Visit our Privacy Policy to learn more. By continuing to use the site, you agree to this use of cookies and data.
  • In Österreich
  • Länderverzeichnis
  • Für 7 Tage
  • Wassertemperatur
  • Satellitenkarten
  • Wetterkarte
  • News
  • Widgets
  • user-avatar
    Anmelden

    Stündliche Wetter Simanovo

    Heute, 20 Februar, Mittwoch

    Zeit Temperatur Niederschläge Wind Luftdruck Luftfeuchtigkeit
    00:00 -4°C° 0 mm 5 m/S 732 mmHg 90%
    01:00 -4°C° 0 mm 5 m/S 732 mmHg 90%
    02:00 -2°C° 0 mm 5 m/S 731 mmHg 90%
    03:00 -2°C° 0.1 mm 5 m/S 730 mmHg 90%
    04:00 -2°C° 0.1 mm 5 m/S 729 mmHg 90%
    05:00 -1°C° 0.1 mm 5 m/S 729 mmHg 90%
    06:00 -1°C° 0.2 mm 5 m/S 728 mmHg 90%
    07:00 -1°C° 0.2 mm 5 m/S 728 mmHg 91%
    08:00 -1°C° 0.2 mm 5 m/S 728 mmHg 92%
    09:00 0°C° 0 mm 5 m/S 727 mmHg 92%
    10:00 0°C° 0 mm 5 m/S 727 mmHg 92%
    11:00 0°C° 0 mm 5 m/S 727 mmHg 93%
    12:00 0°C° 0 mm 5 m/S 727 mmHg 93%
    13:00 0°C° 0 mm 5 m/S 727 mmHg 93%
    14:00 0°C° 0 mm 5 m/S 727 mmHg 92%
    15:00 0°C° 0.1 mm 5 m/S 727 mmHg 92%
    16:00 -1°C° 0.1 mm 5 m/S 727 mmHg 92%
    17:00 -1°C° 0.1 mm 5 m/S 727 mmHg 91%
    18:00 -1°C° 0.1 mm 4 m/S 727 mmHg 91%
    19:00 -1°C° 0.1 mm 4 m/S 727 mmHg 91%
    20:00 -1°C° 0.1 mm 4 m/S 726 mmHg 91%
    21:00 -1°C° 0.3 mm 4 m/S 726 mmHg 92%
    22:00 0°C° 0.3 mm 3 m/S 726 mmHg 93%
    23:00 0°C° 0.3 mm 3 m/S 726 mmHg 94%

    Morgen, 21 Februar, Donnerstag

    Zeit Temperatur Niederschläge Wind Luftdruck Luftfeuchtigkeit
    00:00 -1°C° 0.6 mm 3 m/S 726 mmHg 95%
    01:00 -1°C° 0.6 mm 3 m/S 726 mmHg 95%
    02:00 -1°C° 0.6 mm 3 m/S 726 mmHg 95%
    03:00 -1°C° 0.4 mm 3 m/S 726 mmHg 96%
    04:00 -2°C° 0.4 mm 2 m/S 726 mmHg 96%
    05:00 -2°C° 0.4 mm 2 m/S 727 mmHg 96%
    06:00 -2°C° 0.3 mm 3 m/S 727 mmHg 95%
    07:00 -2°C° 0.3 mm 3 m/S 728 mmHg 94%
    08:00 -3°C° 0.3 mm 4 m/S 729 mmHg 93%
    09:00 -5°C° 0.2 mm 5 m/S 730 mmHg 91%
    10:00 -8°C° 0.2 mm 6 m/S 731 mmHg 88%
    11:00 -9°C° 0.2 mm 7 m/S 732 mmHg 86%
    12:00 -11°C° 0.1 mm 7 m/S 733 mmHg 84%
    13:00 -11°C° 0.1 mm 7 m/S 733 mmHg 83%
    14:00 -12°C° 0.1 mm 7 m/S 734 mmHg 81%
    15:00 -13°C° 0.1 mm 7 m/S 735 mmHg 81%
    16:00 -13°C° 0.1 mm 7 m/S 736 mmHg 81%
    17:00 -14°C° 0.1 mm 7 m/S 737 mmHg 81%
    18:00 -14°C° 0.1 mm 7 m/S 738 mmHg 79%
    19:00 -15°C° 0.1 mm 6 m/S 739 mmHg 78%
    20:00 -15°C° 0.1 mm 6 m/S 739 mmHg 76%
    21:00 -15°C° 0 mm 6 m/S 740 mmHg 76%
    22:00 -16°C° 0 mm 6 m/S 740 mmHg 76%
    23:00 -16°C° 0 mm 6 m/S 741 mmHg 76%

    übermorgen, 22 Februar, Freitag

    Zeit Temperatur Niederschläge Wind Luftdruck Luftfeuchtigkeit
    00:00 -16°C° 0 mm 6 m/S 741 mmHg 76%
    01:00 -17°C° 0 mm 7 m/S 742 mmHg 76%
    02:00 -17°C° 0 mm 7 m/S 742 mmHg 76%
    03:00 -17°C° 0 mm 7 m/S 743 mmHg 75%
    04:00 -17°C° 0 mm 7 m/S 743 mmHg 75%
    05:00 -17°C° 0 mm 7 m/S 743 mmHg 75%
    06:00 -17°C° 0 mm 7 m/S 744 mmHg 74%
    07:00 -17°C° 0 mm 8 m/S 744 mmHg 74%
    08:00 -17°C° 0 mm 8 m/S 745 mmHg 73%
    09:00 -17°C° 0 mm 8 m/S 745 mmHg 72%
    10:00 -16°C° 0 mm 8 m/S 745 mmHg 70%
    11:00 -16°C° 0 mm 8 m/S 746 mmHg 69%
    12:00 -16°C° 0 mm 8 m/S 746 mmHg 69%
    13:00 -15°C° 0 mm 8 m/S 747 mmHg 69%
    14:00 -15°C° 0 mm 8 m/S 747 mmHg 68%
    15:00 -15°C° 0 mm 7 m/S 748 mmHg 70%
    16:00 -15°C° 0 mm 7 m/S 748 mmHg 71%
    17:00 -15°C° 0 mm 7 m/S 749 mmHg 73%
    18:00 -16°C° 0 mm 6 m/S 750 mmHg 75%
    19:00 -16°C° 0 mm 6 m/S 750 mmHg 76%
    20:00 -16°C° 0 mm 6 m/S 751 mmHg 78%
    21:00 -17°C° 0 mm 6 m/S 751 mmHg 80%
    22:00 -17°C° 0 mm 5 m/S 752 mmHg 81%
    23:00 -17°C° 0 mm 5 m/S 752 mmHg 82%

    23 Februar, Samstag

    Zeit Temperatur Niederschläge Wind Luftdruck Luftfeuchtigkeit
    00:00 -18°C° 0 mm 5 m/S 752 mmHg 83%
    01:00 -18°C° 0 mm 5 m/S 753 mmHg 84%
    02:00 -18°C° 0 mm 4 m/S 753 mmHg 85%
    03:00 -18°C° 0 mm 4 m/S 753 mmHg 86%
    04:00 -18°C° 0 mm 4 m/S 754 mmHg 87%
    05:00 -19°C° 0 mm 4 m/S 754 mmHg 88%
    06:00 -19°C° 0 mm 4 m/S 754 mmHg 88%
    07:00 -19°C° 0 mm 4 m/S 754 mmHg 88%
    08:00 -18°C° 0 mm 3 m/S 754 mmHg 87%
    09:00 -17°C° 0 mm 3 m/S 754 mmHg 84%
    10:00 -16°C° 0 mm 3 m/S 754 mmHg 81%
    11:00 -15°C° 0 mm 3 m/S 754 mmHg 77%
    12:00 -13°C° 0 mm 2 m/S 754 mmHg 77%
    13:00 -12°C° 0 mm 2 m/S 754 mmHg 76%
    14:00 -12°C° 0 mm 2 m/S 754 mmHg 76%
    15:00 -12°C° 0 mm 2 m/S 753 mmHg 78%
    16:00 -13°C° 0 mm 2 m/S 753 mmHg 81%
    17:00 -11°C° 0 mm 1 m/S 753 mmHg 84%
    18:00 -11°C° 0 mm 1 m/S 753 mmHg 85%
    19:00 -11°C° 0 mm 1 m/S 753 mmHg 85%
    20:00 -11°C° 0 mm 1 m/S 753 mmHg 86%
    21:00 -11°C° 0 mm 1 m/S 753 mmHg 86%
    22:00 -11°C° 0 mm 1 m/S 753 mmHg 86%
    23:00 -10°C° 0 mm 1 m/S 753 mmHg 86%

    24 Februar, Sonntag

    Zeit Temperatur Niederschläge Wind Luftdruck Luftfeuchtigkeit
    00:00 -10°C° 0.1 mm 1 m/S 753 mmHg 88%
    01:00 -10°C° 0.1 mm 1 m/S 753 mmHg 90%
    02:00 -10°C° 0.1 mm 1 m/S 754 mmHg 92%
    03:00 -12°C° 0.1 mm 2 m/S 754 mmHg 93%
    04:00 -10°C° 0.1 mm 2 m/S 754 mmHg 94%
    05:00 -10°C° 0.1 mm 2 m/S 754 mmHg 95%
    06:00 -10°C° 0 mm 2 m/S 754 mmHg 95%
    07:00 -10°C° 0 mm 2 m/S 754 mmHg 95%
    08:00 -10°C° 0 mm 2 m/S 754 mmHg 95%
    09:00 -9°C° 0 mm 2 m/S 755 mmHg 93%
    10:00 -8°C° 0 mm 2 m/S 755 mmHg 92%
    11:00 -6°C° 0 mm 1 m/S 755 mmHg 90%
    12:00 -6°C° 0 mm 2 m/S 755 mmHg 90%
    13:00 -5°C° 0 mm 2 m/S 755 mmHg 90%
    14:00 -5°C° 0 mm 2 m/S 755 mmHg 90%
    15:00 -5°C° 0 mm 2 m/S 755 mmHg 91%
    16:00 -5°C° 0 mm 2 m/S 755 mmHg 93%
    17:00 -5°C° 0 mm 2 m/S 755 mmHg 95%
    18:00 -5°C° 0 mm 2 m/S 755 mmHg 95%
    19:00 -5°C° 0 mm 2 m/S 754 mmHg 95%
    20:00 -5°C° 0 mm 2 m/S 754 mmHg 96%
    21:00 -5°C° 0 mm 2 m/S 754 mmHg 95%
    22:00 -6°C° 0 mm 3 m/S 754 mmHg 95%
    23:00 -6°C° 0 mm 3 m/S 753 mmHg 95%

    25 Februar, Montag

    Zeit Temperatur Niederschläge Wind Luftdruck Luftfeuchtigkeit
    00:00 -6°C° 0 mm 3 m/S 753 mmHg 95%
    01:00 -8°C° 0 mm 4 m/S 752 mmHg 95%
    02:00 -8°C° 0 mm 4 m/S 752 mmHg 95%
    03:00 -8°C° 0 mm 4 m/S 751 mmHg 95%
    04:00 -8°C° 0 mm 5 m/S 750 mmHg 95%
    05:00 -8°C° 0 mm 5 m/S 750 mmHg 95%
    06:00 -8°C° 0.1 mm 5 m/S 749 mmHg 94%
    07:00 -7°C° 0.1 mm 5 m/S 749 mmHg 94%
    08:00 -6°C° 0.1 mm 5 m/S 748 mmHg 93%
    09:00 -4°C° 0.1 mm 4 m/S 748 mmHg 92%
    10:00 -3°C° 0.1 mm 4 m/S 748 mmHg 91%
    11:00 -2°C° 0.1 mm 4 m/S 747 mmHg 91%
    12:00 -2°C° 0 mm 4 m/S 747 mmHg 88%
    13:00 -2°C° 0 mm 4 m/S 747 mmHg 86%
    14:00 -1°C° 0 mm 4 m/S 746 mmHg 83%
    15:00 -2°C° 0 mm 4 m/S 746 mmHg 84%
    16:00 -3°C° 0 mm 4 m/S 746 mmHg 85%
    17:00 -3°C° 0 mm 4 m/S 746 mmHg 87%
    18:00 -4°C° 0 mm 4 m/S 745 mmHg 88%
    19:00 -4°C° 0 mm 4 m/S 745 mmHg 90%
    20:00 -5°C° 0 mm 4 m/S 745 mmHg 92%
    21:00 -5°C° 0.1 mm 4 m/S 745 mmHg 92%
    22:00 -4°C° 0.1 mm 4 m/S 744 mmHg 92%
    23:00 -3°C° 0.1 mm 4 m/S 744 mmHg 92%
    Mehr zeigen